IK5NLA Vaiano IT current weather conditions

sailwx.info

Wind from 311

Air temperature 16.7° C
Dewpoint 13.8° C

Last reported at 2017-May-30 00:06 UTC.
Time now 2017-May-30 01:12 UTC

Location: N 43°58' E 011°06'.
View on Google Maps.

See reports from other nearby stations

  
Tides and Currents Weather Stations Pressure Air Temp Water Temp Dewpoint Dewpoint Depression Visibility Wind Speed Wind Dir Waves Ship Positions
date/time (UTC)wind fromknots sea level pressurealtimeterstation pressurevisibilityair tempwater tempwave heightnotes
2017-May-30 00:06 311 16.7
2017-May-30 00:01 311 16.7
2017-May-29 23:51 311 16.7
2017-May-29 23:46 311 16.7
2017-May-29 23:36 311 16.7
2017-May-29 23:31 311 16.7
2017-May-29 23:26 311 17.2
2017-May-29 23:06 311 17.2
2017-May-29 22:56 311 17.2
2017-May-29 22:46 311 17.2
2017-May-29 22:41 311 17.2
2017-May-29 22:31 311 17.8
2017-May-29 22:21 311 17.2
2017-May-29 22:16 311 17.2
2017-May-29 22:11 311 17.2
2017-May-29 22:01 311 17.8
2017-May-29 21:51 311 17.8
2017-May-29 21:46 311 17.8
2017-May-29 21:41 311 17.8
2017-May-29 21:31 311 17.8
2017-May-29 21:26 311 17.8
2017-May-29 21:21 311 18.3
2017-May-29 21:16 311 18.3
2017-May-29 21:06 311 18.3
2017-May-29 21:01 311 18.3
2017-May-29 20:51 311 18.9
2017-May-29 20:46 311 18.9
2017-May-29 20:36 311 0 19.4
2017-May-29 20:31 311 0 19.4
2017-May-29 20:26 311 19.4
2017-May-29 20:16 311 18.9
2017-May-29 20:06 311 0 19.4
2017-May-29 19:56 311 20.0
2017-May-29 19:51 311 20.0
2017-May-29 19:41 311 20.0
2017-May-29 19:36 311 20.6
2017-May-29 19:26 311 20.6
2017-May-29 19:21 311 0 21.1
2017-May-29 19:16 311 21.1
2017-May-29 19:11 306 21.7
2017-May-29 19:06 306 21.7
2017-May-29 18:56 306 2 22.8
2017-May-29 18:51 300 2 22.8
2017-May-29 18:41 288 6 22.8
2017-May-29 18:31 267 9 23.3
2017-May-29 18:21 279 9 23.3
2017-May-29 18:16 283 10 23.3
2017-May-29 18:11 294 9 23.3
2017-May-29 18:06 288 9 23.3
2017-May-29 18:01 296 9 22.8
2017-May-29 17:56 283 8 22.8
2017-May-29 17:51 279 8 23.3
2017-May-29 17:46 300 9 23.3
2017-May-29 17:41 280 7 23.3
2017-May-29 17:36 264 6 23.3
2017-May-29 17:26 291 6 23.9
2017-May-29 17:21 267 6 23.9
2017-May-29 17:16 264 6 23.9
2017-May-29 17:11 280 7 23.9
2017-May-29 17:01 292 6 23.9
2017-May-29 16:56 291 6 24.4
2017-May-29 16:41 272 6 24.4
2017-May-29 16:36 263 5 25.0
2017-May-29 16:31 264 5 25.0
2017-May-29 16:26 272 5 25.0
2017-May-29 16:21 269 5 25.0
2017-May-29 16:16 251 6 25.0
2017-May-29 16:11 275 6 25.6
2017-May-29 16:06 245 5 25.6
2017-May-29 16:01 258 6 25.6
2017-May-29 15:56 225 4 26.1
2017-May-29 15:51 259 1 26.7
2017-May-29 15:46 264 1 27.2
2017-May-29 15:41 255 2 26.7
2017-May-29 15:36 232 2 26.7
2017-May-29 15:31 230 2 26.7
2017-May-29 15:21 267 2 26.7
2017-May-29 15:06 206 2 27.2
2017-May-29 15:01 266 3 26.7
2017-May-29 14:56 261 2 27.2
2017-May-29 14:51 235 2 26.7
2017-May-29 14:41 246 1 27.2
2017-May-29 14:36 253 2 27.2
2017-May-29 14:26 230 3 26.7
2017-May-29 14:16 242 1 26.7
2017-May-29 14:11 222 2 26.7
2017-May-29 13:56 277 2 26.7
2017-May-29 13:46 245 2 27.2
2017-May-29 13:41 215 1 27.2
2017-May-29 13:36 226 1 27.2
2017-May-29 13:31 232 1 27.2
2017-May-29 13:21 264 3 26.1
2017-May-29 13:16 181 2 26.1
2017-May-29 12:56 222 2 26.7
2017-May-29 12:51 267 2 26.1
2017-May-29 12:36 240 1 26.7
2017-May-29 12:31 277 4 26.1
2017-May-29 12:26 267 3 26.1
2017-May-29 12:21 259 1 26.1
2017-May-29 12:16 269 3 26.1
2017-May-29 12:11 235 4 25.6
2017-May-29 11:51 192 2 26.1
2017-May-29 11:46 240 2 26.1
2017-May-29 11:41 213 1 26.1
2017-May-29 11:36 236 1 26.1
2017-May-29 11:31 299 2 25.6
2017-May-29 11:16 207 1 26.1
2017-May-29 11:11 178 1 25.6
2017-May-29 11:06 187 1 25.6
2017-May-29 11:01 190 1 26.1
2017-May-29 10:56 196 1 25.6
2017-May-29 10:51 169 1 25.6
2017-May-29 10:41 206 1 25.6
2017-May-29 10:31 172 1 25.0
2017-May-29 10:26 167 2 25.0
2017-May-29 10:21 218 2 24.4
2017-May-29 10:16 211 2 25.0
2017-May-29 10:11 360 2 24.4
2017-May-29 10:06 224 2 24.4
2017-May-29 10:01 201 2 24.4
2017-May-29 09:56 209 1 24.4
2017-May-29 09:51 244 2 24.4
2017-May-29 09:31 188 1 24.4
2017-May-29 09:26 186 2 23.9
2017-May-29 09:16 036 2 24.4
2017-May-29 09:11 035 2 24.4
2017-May-29 09:01 031 0 25.0
2017-May-29 08:56 030 0 25.0
2017-May-29 08:46 031 1 24.4
2017-May-29 08:41 030 1 24.4
2017-May-29 08:36 030 1 24.4
2017-May-29 08:31 023 1 23.9
2017-May-29 08:21 023 1 23.9
2017-May-29 08:16 023 1 23.3
2017-May-29 08:06 022 1 23.3
2017-May-29 07:56 021 1 23.3
2017-May-29 07:41 022 2 23.3
2017-May-29 07:31 021 1 22.8
2017-May-29 07:26 020 1 22.8
2017-May-29 07:16 020 1 22.8
2017-May-29 07:11 019 1 22.2
2017-May-29 07:06 019 1 22.2
2017-May-29 07:01 019 1 22.2
2017-May-29 06:56 019 1 22.2
2017-May-29 06:51 018 1 22.2
2017-May-29 06:46 018 1 22.2
2017-May-29 06:41 018 1 22.2
2017-May-29 06:31 018 1 22.2
2017-May-29 06:26 017 0 22.2
2017-May-29 06:21 014 22.2
2017-May-29 06:16 013 21.7
2017-May-29 06:11 013 21.7
2017-May-29 06:06 013 22.2
2017-May-29 06:01 013 22.2
2017-May-29 05:56 013 22.2
2017-May-29 05:51 013 22.2
2017-May-29 05:46 013 22.2
2017-May-29 05:41 013 21.7
2017-May-29 05:36 013 22.2
2017-May-29 05:31 013 22.2
2017-May-29 05:26 013 21.7
2017-May-29 05:21 013 21.7
2017-May-29 05:16 013 0 21.7
2017-May-29 05:11 013 2 21.7
2017-May-29 05:06 013 3 21.7
2017-May-29 05:01 013 2 21.7
2017-May-29 04:56 355 1 21.1
2017-May-29 04:51 355 1 21.1
2017-May-29 04:46 355 0 21.1
2017-May-29 04:36 355 1 20.6
2017-May-29 04:31 355 1 20.6
2017-May-29 04:26 355 2 20.6
2017-May-29 04:21 355 2 20.6
2017-May-29 04:16 355 3 20.0
2017-May-29 04:11 338 3 20.0
2017-May-29 04:06 343 3 19.4
2017-May-29 03:51 009 3 19.4
2017-May-29 03:41 009 3 19.4
2017-May-29 03:36 009 3 19.4
2017-May-29 03:31 009 3 19.4
2017-May-29 03:26 009 3 19.4
2017-May-29 03:21 009 3 19.4
2017-May-29 03:16 009 3 19.4
2017-May-29 03:06 009 3 20.0
2017-May-29 03:01 009 3 20.0
2017-May-29 02:51 009 3 20.0
2017-May-29 02:46 009 4 20.6
2017-May-29 02:36 009 3 20.0
2017-May-29 02:31 009 3 20.0
2017-May-29 02:26 005 3 20.0
2017-May-29 02:21 355 3 20.0
2017-May-29 02:16 333 3 20.0
2017-May-29 02:06 325 3 19.4
2017-May-29 02:01 331 3 19.4
2017-May-29 01:56 337 3 19.4
2017-May-29 01:46 355 4 19.4
2017-May-29 01:36 355 4 19.4
2017-May-29 01:26 355 4 20.0
2017-May-29 01:21 355 4 19.4
2017-May-29 01:11 355 4 20.0
2017-May-29 00:51 346 3 20.0
2017-May-29 00:26 005 3 20.0
2017-May-29 00:21 005 3 20.0
2017-May-29 00:16 005 3 20.0
2017-May-29 00:11 360 3 20.0
2017-May-28 23:56 360 2 20.0
2017-May-28 23:46 351 2 20.0
2017-May-28 23:36 355 3 20.0
2017-May-28 23:31 344 3 20.0
2017-May-28 23:21 336 3 20.0
2017-May-28 23:11 329 3 20.0
2017-May-28 23:06 340 2 20.0
2017-May-28 22:56 355 3 20.0
2017-May-28 22:51 345 3 20.0
2017-May-28 22:46 325 3 20.0
2017-May-28 22:36 338 3 20.6
2017-May-28 22:31 336 3 20.6
2017-May-28 22:26 334 3 20.6
2017-May-28 22:06 345 3 20.6
2017-May-28 21:56 331 3 20.6
2017-May-28 21:51 320 3 20.6
2017-May-28 21:41 330 3 20.6
2017-May-28 21:36 322 3 20.6
2017-May-28 21:26 319 2 20.6
2017-May-28 21:01 336 2 21.1
2017-May-28 20:51 330 1 21.1
2017-May-28 20:41 360 2 21.7
2017-May-28 20:26 010 1 21.7
2017-May-28 20:21 011 1 21.7
2017-May-28 20:16 011 2 22.2
2017-May-28 20:11 009 2 22.2
2017-May-28 20:06 330 2 22.2
2017-May-28 20:01 013 3 22.2
2017-May-28 19:56 360 2 22.2
2017-May-28 19:46 005 2 22.2
2017-May-28 19:41 011 2 22.2
2017-May-28 19:31 032 1 22.2
2017-May-28 19:26 033 2 22.2
2017-May-28 19:21 107 1 22.8
2017-May-28 19:11 071 1 22.8
2017-May-28 19:01 017 0 22.8
2017-May-28 18:56 086 0 22.8
2017-May-28 18:51 086 0 22.8
2017-May-28 18:46 086 1 22.8
2017-May-28 18:41 076 1 22.8
2017-May-28 18:36 005 0 22.8
2017-May-28 18:21 286 1 22.8
2017-May-28 18:06 261 2 23.3
2017-May-28 17:56 240 1 23.3
2017-May-28 17:51 240 1 23.3
2017-May-28 17:46 240 1 23.3
2017-May-28 17:41 240 1 23.3
2017-May-28 17:36 240 1 23.9
2017-May-28 17:26 238 0 23.9
2017-May-28 17:16 238 24.4
2017-May-28 17:11 238 0 24.4
2017-May-28 17:06 238 0 24.4
2017-May-28 16:56 237 1 24.4
2017-May-28 16:36 209 26.7
2017-May-28 16:16 209 27.2
2017-May-28 16:11 209 27.2
2017-May-28 16:01 209 27.2
2017-May-28 15:56 209 27.2
2017-May-28 15:36 209 26.7
2017-May-28 15:31 209 26.1
2017-May-28 15:26 209 26.1
2017-May-28 15:21 209 0 26.7
2017-May-28 15:16 209 0 26.7
2017-May-28 15:06 209 1 26.7
2017-May-28 14:56 235 1 26.1
2017-May-28 14:51 208 26.7
2017-May-28 14:41 208 0 26.1
2017-May-28 14:36 225 0 26.1
2017-May-28 14:26 221 1 26.1
2017-May-28 14:16 232 2 26.1
2017-May-28 14:11 225 3 26.1
2017-May-28 14:06 221 3 26.1
2017-May-28 14:01 221 2 27.2
2017-May-28 13:56 221 1 27.2
2017-May-28 13:51 219 0 27.2
2017-May-28 13:46 217 0 27.2
2017-May-28 13:36 217 1 26.1
2017-May-28 13:31 217 1 26.1
2017-May-28 13:26 217 0 26.7
2017-May-28 13:11 217 0 26.1
2017-May-28 13:06 217 0 26.1
2017-May-28 12:46 217 0 26.1
2017-May-28 12:41 217 1 26.1
2017-May-28 12:36 214 1 26.1
2017-May-28 12:31 220 0 26.1
2017-May-28 12:26 199 0 25.6
2017-May-28 12:16 203 1 26.1
2017-May-28 12:11 212 0 26.1
2017-May-28 12:06 211 1 25.6
2017-May-28 12:01 223 3 26.1
2017-May-28 11:56 186 2 26.1
2017-May-28 11:51 196 0 26.7
2017-May-28 11:46 184 0 26.1
2017-May-28 11:41 172 3 25.6
2017-May-28 11:36 184 4 25.0
2017-May-28 11:26 191 1 26.1
2017-May-28 11:21 191 2 26.1
2017-May-28 11:16 192 1 26.1
2017-May-28 11:11 192 0 25.6
2017-May-28 10:41 182 2 25.0
2017-May-28 10:36 200 1 25.0
2017-May-28 10:26 174 3 25.0
2017-May-28 10:16 152 1 25.0
2017-May-28 10:06 187 1 24.4
2017-May-28 10:01 172 2 24.4
2017-May-28 09:56 114 2 24.4
2017-May-28 09:51 102 1 25.0
2017-May-28 09:41 090 2 24.4
2017-May-28 09:36 046 1 24.4
2017-May-28 09:16 024 1 24.4
2017-May-28 09:11 024 3 23.9
2017-May-28 08:52 024 2 24.4
2017-May-28 08:31 022 1 23.9
2017-May-28 06:41 021 2 22.2
2017-May-28 06:31 021 1 21.7
2017-May-28 06:21 021 1 22.2
2017-May-28 06:11 013 0 21.7
2017-May-28 06:06 011 0 21.7
2017-May-28 06:01 010 1 21.7
2017-May-28 05:57 010 1 21.1
2017-May-28 05:51 009 1 21.1
2017-May-28 05:46 360 1 21.1
2017-May-28 05:41 360 1 21.1
2017-May-28 05:31 005 0 21.1
2017-May-28 05:26 005 0 21.1
2017-May-28 05:16 005 0 20.6
2017-May-28 05:11 360 0 20.6
2017-May-28 05:06 360 1 20.6
2017-May-28 05:01 005 1 20.6
2017-May-28 04:56 005 1 20.0
2017-May-28 04:51 005 2 20.0
2017-May-28 04:46 005 2 20.0
2017-May-28 04:31 360 2 19.4
2017-May-28 04:16 360 3 18.9
2017-May-28 04:11 360 3 18.9
2017-May-28 03:56 360 3 18.9
2017-May-28 03:51 334 4 18.9
2017-May-28 03:46 331 3 18.9
2017-May-28 03:41 338 3 18.9
2017-May-28 03:36 342 3 18.9
2017-May-28 03:31 013 3 18.9
2017-May-28 03:26 022 3 19.4
2017-May-28 03:16 005 4 19.4
2017-May-28 03:11 014 4 19.4
2017-May-28 03:06 030 3 19.4
2017-May-28 03:01 029 4 19.4
2017-May-28 02:56 030 4 19.4
2017-May-28 02:51 029 4 19.4
2017-May-28 02:46 029 4 19.4
2017-May-28 02:36 029 2 19.4
2017-May-28 02:21 028 3 19.4
2017-May-28 02:11 023 3 19.4
2017-May-28 02:01 029 4 19.4
2017-May-28 01:51 029 3 19.4
2017-May-28 01:46 349 3 18.9
2017-May-28 01:26 327 3 19.4
2017-May-28 01:21 340 3 19.4
2017-May-28 01:16 336 4 18.9
2017-May-28 01:11 344 4 18.9
2017-May-28 01:06 344 4 18.9